Location: Auttagershofen
(48.1940°N, 10.0237°E)
Time: 06:22:57
(UTC+00:00)

Okean 3 - Pass Details

Date: 18 January 2026
Orbit: 542 x 564 km, 82.5° (Epoch: 17 February)

Event Time Altitude Azimuth Distance (km) Brightness Sun altitude
Exits shadow 05:26:33 26° 253° (WSW) 1,100 4.4 -15.8°
Drops below altitude 10° 05:29:16 10° 212° (SSW) 1,803 5.8 -15.3°
Sets 05:31:37 0° 200° (SSW) 2,690 6.8 -14.9°
